Simultaneous Nadir Overpasses (SNOs) Predictions

Prediction of SNOs between NOAA-19 and NPP Satellite Orbit:

Table of predicted SNOs for the next 14.0 days since TLE Epoch: 2/27/2015
Index Date (NOAA-19) Time (NOAA-19) Lat,Lon (NOAA-19) SZA (NOAA-19 ) Date (NPP) Time (NPP) Lat,Lon (NPP) SZA (NPP ) Distance(km) Time Diff (sec)
1 03/01/2015 09:33:12 80.98, -13.81 92.21 03/01/2015 09:34:11 80.98, -13.96 92.20 2.55 59
2 03/01/2015 10:24:11 -80.98, 153.48 87.81 03/01/2015 10:24:56 -80.98, 153.34 87.82 2.52 45
3 03/01/2015 11:15:15 80.98, -39.36 92.19 03/01/2015 11:15:41 80.98, -39.39 92.18 0.69 26
4 03/01/2015 12:06:14 -80.98, 127.94 87.84 03/01/2015 12:06:26 -80.98, 127.91 87.84 0.87 12
5 03/01/2015 12:57:17 80.97, -64.52 92.11 03/01/2015 12:57:10 80.97, -64.46 92.11 1.24 7
6 03/01/2015 13:48:16 -80.97, 102.78 87.91 03/01/2015 13:47:55 -80.97, 102.84 87.91 1.07 21
7 03/01/2015 14:39:19 80.96, -89.69 92.04 03/01/2015 14:38:39 80.95, -89.53 92.03 3.15 40
8 03/01/2015 15:30:18 -80.96, 77.61 87.99 03/01/2015 15:29:24 -80.95, 77.77 87.98 2.88 54




NCC Satellite Simultaneous Nadir Overpasses (SNOs) Prediction Service
